User: anonymous   Login
Location: Bédeille
(43.0872°N, 1.1041°E)
Time: 16:56:25
(UTC+00:00)
Language:

Cosmos 1606 Rocket - Orbit

View from above orbital plane
View from above orbital plane
View from above satellite
View from above satellite

Ground track
Ground track

The orbit data is extracted from the following two-line orbital elements,

1 15370U 84111B   24105.74928234  .00000860  00000-0  98186-4 0  9992
2 15370  82.5192 188.9993 0022033 107.3940 252.9687 14.84742489112853
Epoch (UTC): 14 April 2024 17:58:57
Eccentricity: 0.0022033
inclination: 82.5192°
perigee height: 599 km
apogee height: 630 km
right ascension of ascending node: 188.9993°
argument of perigee: 107.3940°
revolutions per day: 14.84742489
mean anomaly at epoch: 252.9687°
orbit number at epoch: 11285

The dashed part of the orbit path shows where the satellite is in the earth's shadow,  

DLR